sat.trackr.live / text

‹ back to catalog

STARLINK-5377

NORAD 56141 · 2023-046BB

PAYLOAD ACTIVE UNKNOWN

§ Identity

Operator
Country
US
Launch date
2023-03-29
Launch site
AFETR
Launch vehicle
Mass (kg)
RCS (m²)

Purposes: comms

External: N2YO · Heavens-Above · Gunter

§ Orbital elements

Epoch: 2026-05-25T01:57:50.880096Z

Period
94.27 min
Inclination
43.0048°
Eccentricity
0.0001083
Mean motion
15.27576480 rev/d
Perigee alt
482.3 km
Apogee alt
483.8 km
Semi-major
6,861.2 km
B*
8.2141e-6
RAAN
75.5310°
Arg perigee
253.9048°
Mean anomaly
106.1684°
Rev number
17,388

§ Raw data

STARLINK-53771 56141U 23046BB  26145.08183889 -.00000036  00000+0  82141-5 0  99952 56141  43.0048  75.5310 0001083 253.9048 106.1684 15.27576480173880

JSON: /api/v1/satellites/56141 · /tle

For live sub-satellite position, see the globe view (requires WebGL).

§ Visibility from observer

Set your observer location to see the next 7 days of passes ≥ 10°. The values pass through the URL so the page stays shareable.

No JS? Fill the form by hand. The geolocation button needs JavaScript.